When you browse on this site, cookies collect data to enhance your experience and personalize the content and advertising you see.
Visit our Privacy Policy to learn more. By continuing to use the site, you agree to this use of cookies and data.
  • In Sweden
  • List of Countries
  • For 7 days
  • Water Temperature
  • Satellite Maps
  • Weather Map
  • Weather Widgets
  • user-avatar
    Login

    Hourly Weather Niedyszyna

    Today, 23 May, Thursday

    Time Temperature Precipitation Wind Pressure Humidity
    00:00 +12°C° 0.1 mm 4 mps 736 mmHg 95%
    01:00 +12°C° 0.1 mm 4 mps 737 mmHg 96%
    02:00 +12°C° 0.1 mm 4 mps 737 mmHg 96%
    03:00 +12°C° 0.1 mm 4 mps 737 mmHg 97%
    04:00 +12°C° 0.1 mm 4 mps 737 mmHg 97%
    05:00 +12°C° 0.2 mm 5 mps 738 mmHg 96%
    06:00 +13°C° 0.2 mm 5 mps 738 mmHg 95%
    07:00 +13°C° 0.2 mm 5 mps 738 mmHg 94%
    08:00 +13°C° 0.2 mm 5 mps 739 mmHg 93%
    09:00 +13°C° 0.2 mm 6 mps 739 mmHg 93%
    10:00 +13°C° 0.2 mm 6 mps 739 mmHg 93%
    11:00 +13°C° 0.1 mm 6 mps 739 mmHg 91%
    12:00 +14°C° 0.1 mm 6 mps 740 mmHg 89%
    13:00 +14°C° 0.1 mm 6 mps 740 mmHg 87%
    14:00 +14°C° 0 mm 6 mps 740 mmHg 86%
    15:00 +13°C° 0 mm 6 mps 740 mmHg 86%
    16:00 +13°C° 0 mm 6 mps 740 mmHg 86%
    17:00 +13°C° 0 mm 5 mps 740 mmHg 86%
    18:00 +13°C° 0 mm 5 mps 740 mmHg 86%
    19:00 +13°C° 0 mm 4 mps 740 mmHg 86%
    20:00 +13°C° 0 mm 4 mps 740 mmHg 86%
    21:00 +12°C° 0 mm 4 mps 740 mmHg 86%
    22:00 +12°C° 0 mm 4 mps 741 mmHg 86%
    23:00 +11°C° 0 mm 4 mps 741 mmHg 86%

    Tomorrow, 24 May, Friday

    Time Temperature Precipitation Wind Pressure Humidity
    00:00 +11°C° 0 mm 3 mps 741 mmHg 85%
    01:00 +10°C° 0 mm 3 mps 741 mmHg 85%
    02:00 +10°C° 0 mm 3 mps 741 mmHg 83%
    03:00 +10°C° 0 mm 3 mps 741 mmHg 81%
    04:00 +9°C° 0 mm 3 mps 741 mmHg 79%
    05:00 +10°C° 0 mm 3 mps 741 mmHg 78%
    06:00 +10°C° 0 mm 2 mps 741 mmHg 77%
    07:00 +12°C° 0 mm 2 mps 741 mmHg 75%
    08:00 +13°C° 0 mm 3 mps 741 mmHg 71%
    09:00 +14°C° 0 mm 3 mps 741 mmHg 66%
    10:00 +17°C° 0 mm 3 mps 741 mmHg 61%
    11:00 +18°C° 0 mm 3 mps 741 mmHg 58%
    12:00 +19°C° 0 mm 3 mps 740 mmHg 56%
    13:00 +20°C° 0 mm 3 mps 740 mmHg 54%
    14:00 +20°C° 0 mm 3 mps 740 mmHg 54%
    15:00 +20°C° 0 mm 3 mps 740 mmHg 55%
    16:00 +19°C° 0 mm 3 mps 739 mmHg 56%
    17:00 +18°C° 0 mm 2 mps 739 mmHg 61%
    18:00 +17°C° 0 mm 2 mps 739 mmHg 65%
    19:00 +16°C° 0 mm 2 mps 739 mmHg 70%
    20:00 +15°C° 0 mm 2 mps 739 mmHg 72%
    21:00 +14°C° 0 mm 1 mps 739 mmHg 74%
    22:00 +13°C° 0 mm 1 mps 739 mmHg 76%
    23:00 +12°C° 0 mm 1 mps 739 mmHg 78%

    Day after tomorrow, 25 May, Saturday

    Time Temperature Precipitation Wind Pressure Humidity
    00:00 +12°C° 0 mm 1 mps 739 mmHg 79%
    01:00 +11°C° 0 mm 1 mps 739 mmHg 81%
    02:00 +11°C° 0 mm 1 mps 739 mmHg 81%
    03:00 +10°C° 0 mm 2 mps 739 mmHg 82%
    04:00 +9°C° 0 mm 2 mps 738 mmHg 82%
    05:00 +12°C° 0 mm 2 mps 738 mmHg 77%
    06:00 +13°C° 0 mm 3 mps 739 mmHg 72%
    07:00 +14°C° 0 mm 3 mps 739 mmHg 67%
    08:00 +17°C° 0.1 mm 3 mps 739 mmHg 65%
    09:00 +18°C° 0.1 mm 4 mps 739 mmHg 64%
    10:00 +20°C° 0.1 mm 4 mps 739 mmHg 62%
    11:00 +20°C° 0.6 mm 5 mps 738 mmHg 63%
    12:00 +20°C° 0.6 mm 5 mps 738 mmHg 64%
    13:00 +20°C° 0.6 mm 6 mps 738 mmHg 66%
    14:00 +20°C° 0 mm 6 mps 738 mmHg 63%
    15:00 +20°C° 0 mm 6 mps 738 mmHg 60%
    16:00 +20°C° 0 mm 6 mps 738 mmHg 57%
    17:00 +17°C° 0 mm 5 mps 738 mmHg 62%
    18:00 +17°C° 0 mm 4 mps 738 mmHg 68%
    19:00 +16°C° 0 mm 2 mps 738 mmHg 74%
    20:00 +15°C° 0 mm 2 mps 738 mmHg 76%
    21:00 +14°C° 0 mm 2 mps 738 mmHg 78%
    22:00 +13°C° 0 mm 2 mps 738 mmHg 79%
    23:00 +12°C° 0 mm 2 mps 738 mmHg 81%

    26 May, Sunday

    Time Temperature Precipitation Wind Pressure Humidity
    00:00 +11°C° 0 mm 3 mps 738 mmHg 83%
    01:00 +11°C° 0 mm 4 mps 738 mmHg 85%
    02:00 +10°C° 0 mm 4 mps 738 mmHg 87%
    03:00 +8°C° 0 mm 4 mps 738 mmHg 90%
    04:00 +8°C° 0 mm 4 mps 737 mmHg 92%
    05:00 +10°C° 0 mm 4 mps 738 mmHg 87%
    06:00 +9°C° 0 mm 5 mps 738 mmHg 82%
    07:00 +10°C° 0 mm 6 mps 738 mmHg 78%
    08:00 +10°C° 0.1 mm 6 mps 738 mmHg 77%
    09:00 +11°C° 0.1 mm 6 mps 737 mmHg 76%
    10:00 +11°C° 0.1 mm 7 mps 737 mmHg 75%
    11:00 +11°C° 0.3 mm 7 mps 737 mmHg 75%
    12:00 +11°C° 0.3 mm 7 mps 737 mmHg 76%
    13:00 +11°C° 0.3 mm 7 mps 737 mmHg 76%
    14:00 +11°C° 0.1 mm 7 mps 737 mmHg 72%
    15:00 +12°C° 0.1 mm 7 mps 737 mmHg 68%
    16:00 +13°C° 0.1 mm 8 mps 737 mmHg 64%
    17:00 +13°C° 0 mm 6 mps 738 mmHg 68%
    18:00 +12°C° 0 mm 5 mps 738 mmHg 72%
    19:00 +11°C° 0 mm 4 mps 738 mmHg 75%
    20:00 +10°C° 0 mm 3 mps 738 mmHg 80%
    21:00 +9°C° 0 mm 2 mps 738 mmHg 84%
    22:00 +7°C° 0 mm 2 mps 739 mmHg 88%
    23:00 +7°C° 0 mm 2 mps 739 mmHg 89%

    27 May, Monday

    Time Temperature Precipitation Wind Pressure Humidity
    00:00 +7°C° 0 mm 2 mps 739 mmHg 89%
    01:00 +7°C° 0 mm 2 mps 739 mmHg 89%
    02:00 +7°C° 0 mm 2 mps 739 mmHg 91%
    03:00 +7°C° 0 mm 2 mps 739 mmHg 93%
    04:00 +6°C° 0 mm 2 mps 739 mmHg 94%
    05:00 +8°C° 0 mm 3 mps 739 mmHg 89%
    06:00 +10°C° 0 mm 3 mps 739 mmHg 84%
    07:00 +12°C° 0 mm 4 mps 739 mmHg 79%
    08:00 +14°C° 0 mm 4 mps 739 mmHg 74%
    09:00 +17°C° 0 mm 4 mps 738 mmHg 69%
    10:00 +19°C° 0 mm 4 mps 738 mmHg 63%
    11:00 +20°C° 0 mm 4 mps 738 mmHg 60%
    12:00 +21°C° 0 mm 4 mps 737 mmHg 57%
    13:00 +22°C° 0 mm 4 mps 737 mmHg 54%
    14:00 +22°C° 0 mm 4 mps 737 mmHg 54%
    15:00 +23°C° 0 mm 5 mps 736 mmHg 54%
    16:00 +23°C° 0 mm 5 mps 736 mmHg 54%
    17:00 +22°C° 0 mm 4 mps 735 mmHg 61%
    18:00 +20°C° 0 mm 4 mps 735 mmHg 67%
    19:00 +19°C° 0 mm 3 mps 735 mmHg 73%
    20:00 +18°C° 0 mm 3 mps 735 mmHg 75%
    21:00 +17°C° 0 mm 3 mps 735 mmHg 77%
    22:00 +16°C° 0 mm 3 mps 735 mmHg 79%
    23:00 +16°C° 0 mm 3 mps 734 mmHg 81%

    28 May, Tuesday

    Time Temperature Precipitation Wind Pressure Humidity
    00:00 +14°C° 0 mm 3 mps 734 mmHg 83%
    01:00 +15°C° 0 mm 2 mps 734 mmHg 85%
    02:00 +15°C° 0 mm 2 mps 733 mmHg 84%
    03:00 +15°C° 0 mm 2 mps 733 mmHg 84%
    04:00 +15°C° 0 mm 2 mps 733 mmHg 84%
    05:00 +16°C° 0 mm 2 mps 733 mmHg 82%
    06:00 +17°C° 0 mm 2 mps 732 mmHg 80%
    07:00 +18°C° 0 mm 2 mps 732 mmHg 78%
    08:00 +17°C° 0.6 mm 2 mps 732 mmHg 82%
    09:00 +17°C° 0.6 mm 2 mps 732 mmHg 85%
    10:00 +16°C° 0.6 mm 3 mps 732 mmHg 89%
    11:00 +17°C° 1 mm 3 mps 732 mmHg 86%
    12:00 +17°C° 1 mm 3 mps 732 mmHg 84%
    13:00 +18°C° 1 mm 2 mps 732 mmHg 81%
    14:00 +18°C° 0.2 mm 3 mps 733 mmHg 82%
    15:00 +17°C° 0.2 mm 4 mps 733 mmHg 84%
    16:00 +17°C° 0.2 mm 4 mps 733 mmHg 85%
    17:00 +15°C° 0 mm 4 mps 733 mmHg 86%
    18:00 +16°C° 0 mm 3 mps 733 mmHg 86%
    19:00 +15°C° 0 mm 2 mps 734 mmHg 87%
    20:00 +14°C° 0 mm 2 mps 734 mmHg 90%
    21:00 +13°C° 0 mm 2 mps 735 mmHg 92%
    22:00 +13°C° 0 mm 2 mps 735 mmHg 94%
    23:00 +12°C° 0 mm 2 mps 735 mmHg 95%
    Show more